Weather History for KMCD - October, 2014

Change the Weather History Date:

Thursday, October 9, 2014

  Actual Average Record
Temperature  
Mean Temperature 45 °F -  
Max Temperature 49 °F 55 °F 73 °F (2003)
Min Temperature 41 °F 42 °F 31 °F (1993)
Degree Days  
Heating Degree Days 20    
Moisture  
Dew Point 37 °F    
Average Humidity 72    
Maximum Humidity 82    
Minimum Humidity 58    
Precipitation  
Precipitation 0.00 in - - ()
Sea Level Pressure  
Sea Level Pressure 29.96 in    
Wind  
Wind Speed 15 mph (WNW)    
Max Wind Speed 23 mph    
Max Gust Speed 33 mph    
Visibility 10 miles    
Events Rain    
Averages and records for this station are not official NWS values.
T = Trace of Precipitation, MM = Missing Value Source: NWS Daily Summary

Daily Weather History Graph

Daily Weather History Graph

Search for Another Location

Airport or City:

Trip Planner

Search our weather history database for the weather conditions in past years. The results will help you decide how hot, cold, wet, or windy it might be!

Date:

Astronomy

Oct. 09, 2014 Rise Set
Actual Time 7:47 AM EDT 7:03 PM EDT
Civil Twilight 7:17 AM EDT 7:33 PM EDT
Nautical Twilight 6:42 AM EDT 8:07 PM EDT
Astronomical Twilight 6:08 AM EDT 8:42 PM EDT
Moon 7:53 PM EDT (10/9) 9:05 AM EDT (10/9)
Length of Visible Light 12h 15m
Length of Day
11h 16m
Full, 98% of the Moon is Illuminated
Oct 9
Full
Oct 15
Last Quarter
Oct 23
New
Oct 30
First Quarter
Nov 6
Full

Hourly Weather History & Observations

Time (EDT) Temp. Windchill Dew Point Humidity Pressure Visibility Wind Dir Wind Speed Gust Speed Precip Events Conditions
12:18 AM 46.8 °F - 32.5 °F 58% 29.84 in 10.0 mi West 16.1 mph 24.2 mph N/A   Overcast
12:38 AM 47.3 °F - 33.1 °F 58% 29.84 in 10.0 mi West 17.3 mph 25.3 mph N/A   Overcast
12:57 AM 47.3 °F - 33.1 °F 58% 29.84 in 10.0 mi West 17.3 mph 28.8 mph N/A   Overcast
1:18 AM 47.1 °F - 33.4 °F 59% 29.83 in 10.0 mi West 17.3 mph 25.3 mph N/A   Overcast
1:37 AM 47.3 °F - 34.0 °F 60% 29.84 in 10.0 mi WNW 19.6 mph 27.6 mph N/A   Overcast
1:58 AM 46.8 °F - 34.7 °F 63% 29.84 in 10.0 mi WNW 18.4 mph 27.6 mph N/A   Overcast
2:18 AM 46.0 °F 38.8 °F 35.1 °F 66% 29.84 in 10.0 mi WNW 18.4 mph 28.8 mph N/A   Overcast
2:37 AM 45.7 °F 38.3 °F 35.6 °F 68% 29.85 in 10.0 mi WNW 18.4 mph 33.4 mph N/A   Overcast
2:58 AM 44.8 °F 37.4 °F 36.0 °F 71% 29.85 in 10.0 mi West 17.3 mph 25.3 mph N/A   Scattered Clouds
3:18 AM 44.6 °F 36.6 °F 36.1 °F 72% 29.85 in 10.0 mi West 19.6 mph 26.5 mph N/A   Scattered Clouds
3:37 AM 44.8 °F 38.0 °F 36.3 °F 72% 29.85 in 10.0 mi West 15.0 mph 25.3 mph N/A   Mostly Cloudy
3:58 AM 44.1 °F 35.9 °F 37.6 °F 78% 29.85 in 10.0 mi West 19.6 mph 26.5 mph N/A   Scattered Clouds
4:17 AM 44.6 °F 37.8 °F 37.2 °F 75% 29.85 in 10.0 mi West 15.0 mph 25.3 mph N/A   Mostly Cloudy
4:38 AM 45.1 °F 37.6 °F 37.4 °F 74% 29.85 in 10.0 mi West 18.4 mph 25.3 mph N/A   Overcast
4:58 AM 45.0 °F 37.6 °F 37.0 °F 74% 29.86 in 10.0 mi West 17.3 mph 28.8 mph N/A   Mostly Cloudy
5:17 AM 45.0 °F 37.4 °F 37.4 °F 75% 29.86 in 10.0 mi West 18.4 mph 24.2 mph N/A   Overcast
5:38 AM 46.0 °F 39.3 °F 37.4 °F 72% 29.87 in 10.0 mi WNW 16.1 mph 27.6 mph N/A   Overcast
5:58 AM 44.6 °F 36.6 °F 37.6 °F 76% 29.87 in 10.0 mi WNW 19.6 mph 29.9 mph N/A   Overcast
6:18 AM 44.6 °F 38.1 °F 36.5 °F 73% 29.88 in 10.0 mi WNW 13.8 mph 27.6 mph N/A   Overcast
6:38 AM 44.2 °F 36.7 °F 37.0 °F 76% 29.88 in 10.0 mi West 17.3 mph 26.5 mph N/A   Overcast
6:57 AM 44.1 °F 37.1 °F 37.6 °F 78% 29.88 in 10.0 mi WNW 15.0 mph 24.2 mph N/A   Overcast
7:18 AM 43.7 °F 36.6 °F 37.2 °F 78% 29.89 in 10.0 mi WNW 15.0 mph 23.0 mph N/A   Overcast
7:38 AM 43.7 °F 36.9 °F 37.6 °F 79% 29.90 in 10.0 mi WNW 13.8 mph 24.2 mph N/A   Overcast
7:57 AM 43.2 °F 37.4 °F 37.4 °F 80% 29.90 in 10.0 mi WNW 10.4 mph 24.2 mph N/A   Overcast
8:18 AM 42.3 °F 34.4 °F 36.5 °F 80% 29.91 in 10.0 mi WNW 16.1 mph 20.7 mph N/A   Scattered Clouds
8:38 AM 42.4 °F 35.3 °F 37.0 °F 81% 29.91 in 10.0 mi WNW 13.8 mph 20.7 mph N/A   Scattered Clouds
8:57 AM 42.4 °F 35.7 °F 37.0 °F 81% 29.92 in 10.0 mi WNW 12.7 mph 19.6 mph N/A   Scattered Clouds
9:18 AM 43.0 °F 36.8 °F 36.9 °F 79% 29.92 in 10.0 mi WNW 11.5 mph 21.9 mph N/A   Scattered Clouds
9:37 AM 43.9 °F 37.2 °F 37.0 °F 77% 29.92 in 10.0 mi WNW 13.8 mph 23.0 mph N/A   Clear
9:58 AM 44.6 °F 38.8 °F 37.2 °F 75% 29.93 in 10.0 mi WNW 11.5 mph 21.9 mph N/A   Clear
10:18 AM 44.8 °F 39.0 °F 37.2 °F 75% 29.94 in 10.0 mi WNW 11.5 mph 25.3 mph N/A   Scattered Clouds
10:37 AM 46.2 °F 40.8 °F 37.0 °F 70% 29.95 in 10.0 mi WNW 11.5 mph 18.4 mph N/A   Scattered Clouds
10:58 AM 47.3 °F - 36.3 °F 66% 29.96 in 10.0 mi WNW 13.8 mph 20.7 mph N/A   Scattered Clouds
11:18 AM 46.6 °F - 36.0 °F 67% 29.97 in 10.0 mi WNW 15.0 mph 20.7 mph N/A   Mostly Cloudy
11:38 AM 48.2 °F - 36.5 °F 64% 29.97 in 10.0 mi WNW 13.8 mph 19.6 mph N/A   Mostly Cloudy
11:58 AM 46.6 °F - 35.8 °F 66% 29.97 in 10.0 mi WNW 12.7 mph 18.4 mph N/A   Mostly Cloudy
12:18 PM 48.6 °F - 35.6 °F 61% 29.97 in 10.0 mi WNW 13.8 mph 19.6 mph N/A   Mostly Cloudy
12:38 PM 47.3 °F - 36.0 °F 65% 29.98 in 10.0 mi WNW 11.5 mph - N/A   Scattered Clouds
12:58 PM 49.8 °F - 36.9 °F 61% 29.99 in 10.0 mi West 17.3 mph 23.0 mph N/A   Mostly Cloudy
1:18 PM 45.9 °F 39.7 °F 37.4 °F 72% 29.99 in 7.0 mi West 13.8 mph 24.2 mph N/A Rain Rain
1:38 PM 46.2 °F 39.8 °F 37.4 °F 71% 29.99 in 10.0 mi West 15.0 mph 20.7 mph N/A   Overcast
1:58 PM 48.4 °F - 37.0 °F 65% 30.00 in 10.0 mi West 21.9 mph - N/A   Overcast
2:18 PM 49.5 °F - 37.4 °F 63% 30.00 in 10.0 mi West 16.1 mph 23.0 mph N/A   Overcast
2:38 PM 47.1 °F - 37.4 °F 69% 30.00 in 10.0 mi West 18.4 mph 23.0 mph N/A   Overcast
2:58 PM 47.8 °F - 37.6 °F 68% 30.00 in 10.0 mi WNW 13.8 mph 25.3 mph N/A   Overcast
3:18 PM 48.2 °F - 37.2 °F 66% 30.00 in 10.0 mi West 23.0 mph 28.8 mph N/A   Overcast
3:38 PM 48.4 °F - 38.7 °F 69% 30.01 in 10.0 mi West 16.1 mph 23.0 mph N/A   Overcast
3:58 PM 49.3 °F - 39.2 °F 68% 30.01 in 10.0 mi WNW 13.8 mph 23.0 mph N/A   Overcast
4:18 PM 49.8 °F - 37.6 °F 63% 30.01 in 10.0 mi West 18.4 mph 24.2 mph N/A   Overcast
4:38 PM 47.8 °F - 37.4 °F 67% 30.01 in 10.0 mi West 16.1 mph 23.0 mph N/A   Mostly Cloudy
4:58 PM 48.6 °F - 36.7 °F 64% 30.02 in 10.0 mi NW 10.4 mph 24.2 mph N/A   Overcast
5:18 PM 46.9 °F - 39.0 °F 74% 30.02 in 10.0 mi WNW 13.8 mph 25.3 mph N/A Rain Light Rain
5:38 PM 46.6 °F - 38.8 °F 74% 30.02 in 10.0 mi NW 15.0 mph 24.2 mph N/A Rain Light Rain
5:58 PM 45.5 °F 39.2 °F 38.1 °F 75% 30.02 in 10.0 mi WNW 13.8 mph 20.7 mph N/A   Mostly Cloudy
6:18 PM 45.5 °F 38.1 °F 37.4 °F 73% 30.03 in 10.0 mi WNW 18.4 mph 25.3 mph N/A   Mostly Cloudy
6:38 PM 44.6 °F 38.8 °F 36.1 °F 72% 30.03 in 10.0 mi NW 11.5 mph 21.9 mph N/A   Mostly Cloudy
6:58 PM 43.9 °F 37.2 °F 36.5 °F 75% 30.03 in 10.0 mi NW 13.8 mph 18.4 mph N/A   Scattered Clouds
7:18 PM 43.0 °F 37.2 °F 36.5 °F 78% 30.04 in 10.0 mi NW 10.4 mph 18.4 mph N/A   Scattered Clouds
7:39 PM 42.8 °F 35.8 °F 36.3 °F 78% 30.05 in 10.0 mi NW 13.8 mph 20.7 mph N/A   Clear
7:58 PM 42.6 °F 36.3 °F 36.5 °F 79% 30.05 in 10.0 mi NW 11.5 mph 17.3 mph N/A   Mostly Cloudy
8:18 PM 42.1 °F 37.1 °F 36.5 °F 81% 30.06 in 10.0 mi NW 8.1 mph - N/A   Scattered Clouds
8:38 PM 41.9 °F 37.5 °F 36.5 °F 81% 30.06 in 10.0 mi NW 6.9 mph - N/A   Clear
8:58 PM 41.9 °F 36.3 °F 36.5 °F 81% 30.07 in 10.0 mi WNW 9.2 mph - N/A   Clear
9:18 PM 42.1 °F 36.6 °F 36.9 °F 82% 30.08 in 10.0 mi West 9.2 mph - N/A   Clear
9:38 PM 41.7 °F 36.1 °F 36.5 °F 82% 30.08 in 10.0 mi West 9.2 mph - N/A   Clear
9:58 PM 41.7 °F 36.7 °F 36.0 °F 80% 30.08 in 10.0 mi WNW 8.1 mph - N/A   Clear
10:18 PM 42.3 °F 36.8 °F 36.1 °F 79% 30.08 in 10.0 mi WNW 9.2 mph 16.1 mph N/A   Scattered Clouds
10:38 PM 42.3 °F 36.8 °F 35.6 °F 77% 30.08 in 10.0 mi West 9.2 mph - N/A   Mostly Cloudy
10:58 PM 42.1 °F 36.6 °F 35.1 °F 76% 30.08 in 10.0 mi WNW 9.2 mph 16.1 mph N/A   Mostly Cloudy
11:19 PM 42.1 °F 37.1 °F 34.7 °F 75% 30.08 in 10.0 mi WNW 8.1 mph - N/A   Clear
11:38 PM 42.1 °F 37.7 °F 34.3 °F 74% 30.08 in 10.0 mi West 6.9 mph - N/A   Clear
11:58 PM 42.1 °F 37.1 °F 35.1 °F 76% 30.08 in 10.0 mi West 8.1 mph - N/A   Clear